| time (UTC) | temp F | wind direction | speed knots | gust knots | rain 1hr in | rain 24hr in | rain mn in | humidity % | barometer mb |
| 20260906222705 | 67 | 153 | 0.0 | 0.9 | 0.00 | 0.00 | 0.00 | 69 | 1016.4 |
| 20260906221803 | 67 | 153 | 0.0 | 0.9 | 0.00 | 0.00 | 0.00 | 69 | 1016.4 |
| 20260906220903 | 67 | 153 | 0.0 | 1.7 | 0.00 | 0.00 | 0.00 | 69 | 1016.2 |
| 20260906220003 | 67 | 153 | 0.9 | 2.6 | 0.00 | 0.00 | 0.00 | 69 | 1016.4 |
| 20260906215405 | 67 | 164 | 0.0 | 2.6 | 0.00 | 0.00 | 0.00 | 70 | 1016.4 |
| 20260906214505 | 66 | 174 | 0.0 | 0.9 | 0.00 | 0.00 | 0.00 | 69 | 1016.5 |
| 20260906213604 | 66 | 174 | 0.0 | 2.6 | 0.00 | 0.00 | 0.00 | 69 | 1016.6 |
| 20260906212706 | 66 | 174 | 0.0 | 0.9 | 0.00 | 0.00 | 0.00 | 69 | 1016.7 |
| 20260906211805 | 66 | 0 | 0.0 | 0.0 | 0.00 | 0.00 | 0.00 | 69 | 1016.6 |
| 20260906210903 | 67 | 174 | 0.0 | 0.9 | 0.00 | 0.00 | 0.00 | 69 | 1016.8 |
| 20260906210005 | 67 | 174 | 0.0 | 0.9 | 0.00 | 0.00 | 0.00 | 69 | 1016.4 |
| 20260906205405 | 67 | 174 | 0.0 | 0.9 | 0.00 | 0.00 | 0.00 | 68 | 1016.4 |
| 20260906204505 | 67 | 174 | 0.0 | 0.9 | 0.00 | 0.00 | 0.00 | 68 | 1016.6 |
| 20260906203606 | 68 | 174 | 0.0 | 1.7 | 0.00 | 0.00 | 0.00 | 67 | 1016.8 |
| 20260906202703 | 68 | 174 | 0.0 | 1.7 | 0.00 | 0.00 | 0.00 | 67 | 1016.8 |
| 20260906201805 | 68 | 174 | 0.9 | 2.6 | 0.00 | 0.00 | 0.00 | 67 | 1016.8 |
| 20260906200905 | 68 | 175 | 0.9 | 3.5 | 0.00 | 0.00 | 0.00 | 67 | 1016.9 |
| 20260906200005 | 68 | 180 | 0.9 | 1.7 | 0.00 | 0.00 | 0.00 | 67 | 1016.9 |
| 20260906195403 | 68 | 165 | 0.9 | 6.1 | 0.00 | 0.00 | 0.00 | 67 | 1016.8 |
| 20260906194504 | 68 | 190 | 0.9 | 2.6 | 0.00 | 0.00 | 0.00 | 67 | 1016.7 |
| 20260906193606 | 68 | 190 | 0.0 | 2.6 | 0.00 | 0.00 | 0.00 | 66 | 1016.8 |
| 20260906192703 | 70 | 323 | 0.0 | 0.9 | 0.00 | 0.00 | 0.00 | 63 | 1016.9 |
| 20260906191805 | 70 | 323 | 0.0 | 2.6 | 0.00 | 0.00 | 0.00 | 63 | 1017.0 |
| 20260906190905 | 70 | 295 | 0.9 | 3.5 | 0.00 | 0.00 | 0.00 | 63 | 1017.0 |
| 20260906190005 | 70 | 190 | 0.0 | 1.7 | 0.00 | 0.00 | 0.00 | 63 | 1017.3 |
| 20260906185408 | 70 | 190 | 0.0 | 1.7 | 0.00 | 0.00 | 0.00 | 62 | 1017.3 |
| 20260906184713 | 70 | 190 | 0.0 | 1.7 | 0.00 | 0.00 | 0.00 | 61 | 1017.3 |
| 20260906183815 | 70 | 161 | 0.9 | 2.6 | 0.00 | 0.00 | 0.00 | 61 | 1017.1 |
| 20260906182703 | 71 | 125 | 0.9 | 2.6 | 0.00 | 0.00 | 0.00 | 60 | 1017.1 |
| 20260906181804 | 71 | 126 | 0.9 | 4.3 | 0.00 | 0.00 | 0.00 | 60 | 1017.1 |
| 20260906181117 | 71 | 138 | 1.7 | 4.3 | 0.00 | 0.00 | 0.00 | 60 | 1017.1 |
| 20260906180003 | 72 | 164 | 0.9 | 4.3 | 0.00 | 0.00 | 0.00 | 60 | 1017.1 |
| 20260906175616 | 72 | 158 | 1.7 | 5.2 | 0.00 | 0.00 | 0.00 | 59 | 1017.2 |
| 20260906174503 | 72 | 157 | 0.9 | 4.3 | 0.00 | 0.00 | 0.00 | 59 | 1017.3 |
| 20260906173603 | 72 | 150 | 1.7 | 4.3 | 0.00 | 0.00 | 0.00 | 59 | 1017.5 |
| 20260906172706 | 72 | 160 | 1.7 | 6.1 | 0.00 | 0.00 | 0.00 | 58 | 1017.7 |
| 20260906172016 | 72 | 140 | 1.7 | 6.1 | 0.00 | 0.00 | 0.00 | 58 | 1017.8 |
| 20260906170905 | 72 | 155 | 1.7 | 5.2 | 0.00 | 0.00 | 0.00 | 57 | 1018.0 |
| 20260906170005 | 72 | 140 | 0.9 | 5.2 | 0.00 | 0.00 | 0.00 | 56 | 1018.1 |
| 20260906165617 | 73 | 154 | 0.9 | 5.2 | 0.00 | 0.00 | 0.00 | 55 | 1018.2 |
| 20260906164504 | 73 | 163 | 1.7 | 6.1 | 0.00 | 0.00 | 0.00 | 55 | 1018.2 |
| 20260906163606 | 73 | 158 | 2.6 | 7.0 | 0.00 | 0.00 | 0.00 | 54 | 1018.3 |
| 20260906162705 | 74 | 152 | 2.6 | 8.7 | 0.00 | 0.00 | 0.00 | 52 | 1018.5 |
| 20260906162016 | 74 | 164 | 2.6 | 8.7 | 0.00 | 0.00 | 0.00 | 53 | 1018.5 |
| 20260906160903 | 75 | 139 | 2.6 | 8.7 | 0.00 | 0.00 | 0.00 | 52 | 1018.5 |
| 20260906160003 | 76 | 128 | 1.7 | 6.1 | 0.00 | 0.00 | 0.00 | 51 | 1018.5 |
| 20260906155612 | 76 | 144 | 1.7 | 7.8 | 0.00 | 0.00 | 0.00 | 50 | 1018.6 |
| 20260906154715 | 76 | 146 | 1.7 | 7.8 | 0.00 | 0.00 | 0.00 | 49 | 1018.6 |
| 20260906153603 | 77 | 164 | 2.6 | 8.7 | 0.00 | 0.00 | 0.00 | 48 | 1018.4 |
| 20260906152915 | 77 | 151 | 2.6 | 8.7 | 0.00 | 0.00 | 0.00 | 47 | 1018.5 |
| 20260906151805 | 78 | 151 | 2.6 | 7.8 | 0.00 | 0.00 | 0.00 | 46 | 1018.5 |
| 20260906150905 | 77 | 156 | 2.6 | 7.8 | 0.00 | 0.00 | 0.00 | 46 | 1018.5 |
| 20260906150005 | 78 | 161 | 1.7 | 4.3 | 0.00 | 0.00 | 0.00 | 46 | 1018.6 |
| 20260906145613 | 78 | 164 | 1.7 | 7.0 | 0.00 | 0.00 | 0.00 | 46 | 1018.7 |
| 20260906144505 | 77 | 167 | 2.6 | 8.7 | 0.00 | 0.00 | 0.00 | 45 | 1018.7 |
| 20260906143605 | 78 | 140 | 1.7 | 6.1 | 0.00 | 0.00 | 0.00 | 45 | 1019.0 |
| 20260906142705 | 78 | 145 | 2.6 | 7.8 | 0.00 | 0.00 | 0.00 | 44 | 1018.9 |
| 20260906141803 | 79 | 157 | 1.7 | 6.1 | 0.00 | 0.00 | 0.00 | 45 | 1018.8 |
| 20260906141120 | 80 | 144 | 2.6 | 8.7 | 0.00 | 0.00 | 0.00 | 45 | 1019.0 |
| 20260906140005 | 80 | 155 | 2.6 | 9.6 | 0.00 | 0.00 | 0.00 | 44 | 1019.1 |
| 20260906135405 | 81 | 158 | 2.6 | 8.7 | 0.00 | 0.00 | 0.00 | 43 | 1019.0 |
| 20260906134505 | 81 | 129 | 2.6 | 11.3 | 0.00 | 0.00 | 0.00 | 43 | 1019.3 |
| 20260906133605 | 82 | 162 | 1.7 | 7.0 | 0.00 | 0.00 | 0.00 | 42 | 1019.4 |
| 20260906132916 | 81 | 153 | 1.7 | 7.0 | 0.00 | 0.00 | 0.00 | 43 | 1019.5 |
| 20260906131803 | 81 | 188 | 1.7 | 7.0 | 0.00 | 0.00 | 0.00 | 44 | 1019.8 |
| 20260906130906 | 80 | 177 | 1.7 | 8.7 | 0.00 | 0.00 | 0.00 | 44 | 1019.9 |
| 20260906130003 | 79 | 153 | 1.7 | 7.0 | 0.00 | 0.00 | 0.00 | 45 | 1020.0 |
| 20260906125403 | 78 | 148 | 1.7 | 7.8 | 0.00 | 0.00 | 0.00 | 47 | 1019.9 |
| 20260906124505 | 78 | 154 | 1.7 | 10.4 | 0.00 | 0.00 | 0.00 | 47 | 1020.1 |
| 20260906123606 | 78 | 154 | 2.6 | 10.4 | 0.00 | 0.00 | 0.00 | 47 | 1020.1 |
| 20260906122703 | 78 | 178 | 2.6 | 7.0 | 0.00 | 0.00 | 0.00 | 47 | 1020.2 |
| 20260906121804 | 78 | 168 | 2.6 | 7.8 | 0.00 | 0.00 | 0.00 | 46 | 1020.3 |
| 20260906120903 | 78 | 168 | 2.6 | 10.4 | 0.00 | 0.00 | 0.00 | 46 | 1020.3 |
| 20260906120005 | 78 | 162 | 2.6 | 7.8 | 0.00 | 0.00 | 0.00 | 47 | 1020.4 |
| 20260906115404 | 78 | 158 | 2.6 | 7.8 | 0.00 | 0.00 | 0.00 | 46 | 1020.5 |
| 20260906114505 | 78 | 147 | 2.6 | 7.8 | 0.00 | 0.00 | 0.00 | 47 | 1020.5 |
| 20260906113605 | 78 | 161 | 2.6 | 8.7 | 0.00 | 0.00 | 0.00 | 47 | 1020.7 |
| 20260906112703 | 78 | 164 | 2.6 | 7.0 | 0.00 | 0.00 | 0.00 | 49 | 1020.6 |
| 20260906111805 | 78 | 202 | 1.7 | 7.0 | 0.00 | 0.00 | 0.00 | 48 | 1020.6 |
| 20260906110903 | 77 | 157 | 2.6 | 9.6 | 0.00 | 0.00 | 0.00 | 51 | 1020.8 |
| 20260906110003 | 77 | 172 | 1.7 | 6.1 | 0.00 | 0.00 | 0.00 | 52 | 1020.9 |
| 20260906105403 | 76 | 163 | 1.7 | 7.0 | 0.00 | 0.00 | 0.00 | 54 | 1020.9 |
| 20260906104503 | 75 | 158 | 3.5 | 8.7 | 0.00 | 0.00 | 0.00 | 54 | 1021.0 |
| 20260906103605 | 76 | 157 | 2.6 | 7.8 | 0.00 | 0.00 | 0.00 | 54 | 1021.0 |
| 20260906102705 | 75 | 150 | 2.6 | 6.1 | 0.00 | 0.00 | 0.00 | 56 | 1021.1 |
| 20260906102015 | 74 | 170 | 1.7 | 6.1 | 0.00 | 0.00 | 0.00 | 59 | 1021.1 |
| 20260906100904 | 73 | 133 | 1.7 | 6.1 | 0.00 | 0.00 | 0.00 | 61 | 1021.1 |
| 20260906100004 | 73 | 142 | 1.7 | 7.0 | 0.00 | 0.00 | 0.00 | 62 | 1021.1 |
| 20260906095405 | 72 | 150 | 1.7 | 7.8 | 0.00 | 0.00 | 0.00 | 62 | 1021.2 |
| 20260906094503 | 72 | 159 | 2.6 | 7.8 | 0.00 | 0.00 | 0.00 | 63 | 1021.2 |
| 20260906093603 | 72 | 173 | 1.7 | 7.0 | 0.00 | 0.00 | 0.00 | 63 | 1021.3 |
| 20260906092705 | 71 | 144 | 1.7 | 7.0 | 0.00 | 0.00 | 0.00 | 63 | 1021.3 |
| 20260906092015 | 71 | 135 | 1.7 | 7.8 | 0.00 | 0.00 | 0.00 | 65 | 1021.6 |
| 20260906090903 | 70 | 136 | 1.7 | 4.3 | 0.00 | 0.00 | 0.00 | 68 | 1021.5 |
| 20260906090215 | 69 | 135 | 1.7 | 4.3 | 0.00 | 0.00 | 0.00 | 70 | 1021.7 |
| 20260906085405 | 68 | 135 | 2.6 | 6.1 | 0.00 | 0.00 | 0.00 | 71 | 1021.7 |
| 20260906084508 | 68 | 137 | 1.7 | 5.2 | 0.00 | 0.00 | 0.00 | 73 | 1021.7 |
| 20260906083817 | 67 | 137 | 2.6 | 7.0 | 0.00 | 0.00 | 0.00 | 74 | 1021.7 |
| 20260906082919 | 67 | 134 | 1.7 | 7.0 | 0.00 | 0.00 | 0.00 | 76 | 1021.7 |
| 20260906081803 | 66 | 136 | 1.7 | 7.0 | 0.00 | 0.00 | 0.00 | 78 | 1021.8 |
| 20260906080905 | 65 | 124 | 1.7 | 7.0 | 0.00 | 0.00 | 0.00 | 78 | 1022.0 |
| 20260906080008 | 64 | 156 | 0.9 | 5.2 | 0.00 | 0.00 | 0.00 | 78 | 1022.2 |
| 20260906075403 | 64 | 129 | 0.9 | 5.2 | 0.00 | 0.00 | 0.00 | 78 | 1022.1 |
| 20260906074503 | 64 | 113 | 1.7 | 3.5 | 0.00 | 0.00 | 0.00 | 77 | 1022.0 |
| 20260906073606 | 64 | 111 | 1.7 | 6.1 | 0.00 | 0.00 | 0.00 | 76 | 1022.0 |
| 20260906072914 | 64 | 104 | 0.9 | 4.3 | 0.00 | 0.00 | 0.00 | 76 | 1021.9 |
| 20260906071805 | 63 | 139 | 0.9 | 4.3 | 0.00 | 0.00 | 0.00 | 78 | 1022.0 |
| 20260906070903 | 63 | 148 | 0.9 | 3.5 | 0.00 | 0.00 | 0.00 | 79 | 1022.1 |
| 20260906070006 | 62 | 153 | 0.9 | 3.5 | 0.00 | 0.00 | 0.00 | 80 | 1022.2 |
| 20260906065613 | 62 | 160 | 0.0 | 3.5 | 0.00 | 0.00 | 0.00 | 81 | 1022.0 |
| 20260906064503 | 60 | 161 | 0.0 | 1.7 | 0.00 | 0.00 | 0.00 | 82 | 1022.3 |
| 20260906063618 | 60 | 163 | 0.0 | 1.7 | 0.00 | 0.00 | 0.00 | 82 | 1022.3 |
| 20260906062705 | 59 | 163 | 0.0 | 1.7 | 0.00 | 0.00 | 0.00 | 83 | 1022.3 |
| 20260906061806 | 59 | 163 | 0.0 | 1.7 | 0.00 | 0.00 | 0.00 | 83 | 1022.5 |
| 20260906060903 | 59 | 163 | 0.0 | 0.9 | 0.00 | 0.00 | 0.00 | 83 | 1022.4 |
| 20260906060217 | 59 | 163 | 0.0 | 0.9 | 0.00 | 0.00 | 0.00 | 82 | 1022.2 |
| 20260906055403 | 59 | 164 | 0.0 | 0.9 | 0.00 | 0.00 | 0.00 | 82 | 1022.2 |
| 20260906054505 | 59 | 164 | 0.0 | 3.5 | 0.00 | 0.00 | 0.00 | 81 | 1022.3 |
| 20260906053605 | 59 | 165 | 0.0 | 1.7 | 0.00 | 0.00 | 0.00 | 81 | 1022.4 |
| 20260906052706 | 59 | 165 | 0.9 | 3.5 | 0.00 | 0.00 | 0.00 | 81 | 1022.5 |
| 20260906052013 | 59 | 163 | 0.0 | 3.5 | 0.00 | 0.00 | 0.00 | 81 | 1022.4 |
| 20260906050906 | 59 | 0 | 0.0 | 0.0 | 0.00 | 0.00 | 0.00 | 82 | 1022.6 |
| 20260906050003 | 58 | 0 | 0.0 | 0.0 | 0.00 | 0.00 | 0.00 | 82 | 1022.6 |
| 20260906045406 | 58 | 0 | 0.0 | 0.0 | 0.00 | 0.00 | 0.00 | 82 | 1022.6 |
| 20260906044505 | 58 | 0 | 0.0 | 0.0 | 0.00 | 0.00 | 0.00 | 82 | 1022.6 |
| 20260906043605 | 58 | 0 | 0.0 | 0.0 | 0.00 | 0.00 | 0.00 | 83 | 1022.6 |
| 20260906042703 | 58 | 0 | 0.0 | 0.0 | 0.00 | 0.00 | 0.00 | 82 | 1022.6 |
| 20260906041803 | 58 | 0 | 0.0 | 0.0 | 0.00 | 0.00 | 0.00 | 82 | 1022.6 |
| 20260906040905 | 58 | 0 | 0.0 | 0.0 | 0.00 | 0.00 | 0.00 | 82 | 1022.7 |
| 20260906040005 | 58 | 0 | 0.0 | 0.0 | 0.00 | 0.00 | 0.00 | 81 | 1022.7 |
| 20260906035615 | 58 | 0 | 0.0 | 0.0 | 0.00 | 0.00 | 0.00 | 81 | 1022.8 |
| 20260906034505 | 58 | 0 | 0.0 | 0.0 | 0.00 | 0.00 | 0.00 | 81 | 1022.8 |
| 20260906033603 | 58 | 0 | 0.0 | 0.0 | 0.00 | 0.00 | 0.00 | 81 | 1022.8 |
| 20260906032703 | 58 | 0 | 0.0 | 0.0 | 0.00 | 0.00 | 0.00 | 81 | 1022.8 |
| 20260906031805 | 58 | 0 | 0.0 | 0.0 | 0.00 | 0.00 | 0.00 | 81 | 1022.7 |
| 20260906030905 | 58 | 0 | 0.0 | 0.0 | 0.00 | 0.00 | 0.00 | 80 | 1022.8 |
| 20260906030003 | 58 | 0 | 0.0 | 0.0 | 0.00 | 0.00 | 0.00 | 80 | 1023.0 |
| 20260906025405 | 58 | 0 | 0.0 | 0.0 | 0.00 | 0.00 | 0.00 | 80 | 1023.1 |
| 20260906024506 | 58 | 0 | 0.0 | 0.0 | 0.00 | 0.00 | 0.00 | 80 | 1023.2 |
| 20260906023603 | 58 | 0 | 0.0 | 0.0 | 0.00 | 0.00 | 0.00 | 80 | 1023.3 |
| 20260906022706 | 58 | 0 | 0.0 | 0.0 | 0.00 | 0.00 | 0.00 | 80 | 1023.6 |
| 20260906021803 | 58 | 0 | 0.0 | 0.0 | 0.00 | 0.00 | 0.00 | 81 | 1023.6 |
| 20260906020905 | 58 | 0 | 0.0 | 0.0 | 0.00 | 0.00 | 0.00 | 80 | 1023.9 |
| 20260906020005 | 58 | 0 | 0.0 | 0.0 | 0.00 | 0.00 | 0.00 | 80 | 1023.7 |
| 20260906015616 | 58 | 0 | 0.0 | 0.0 | 0.00 | 0.00 | 0.00 | 80 | 1023.9 |
| 20260906014506 | 58 | 0 | 0.0 | 0.0 | 0.00 | 0.00 | 0.00 | 80 | 1023.9 |
| 20260906013816 | 58 | 0 | 0.0 | 0.0 | 0.00 | 0.00 | 0.00 | 79 | 1024.0 |
| 20260906012705 | 59 | 0 | 0.0 | 0.0 | 0.00 | 0.00 | 0.00 | 79 | 1024.0 |
| 20260906011805 | 59 | 0 | 0.0 | 0.0 | 0.00 | 0.00 | 0.00 | 79 | 1024.2 |
| 20260906010904 | 59 | 0 | 0.0 | 0.0 | 0.00 | 0.00 | 0.00 | 79 | 1024.2 |
| 20260906010005 | 59 | 0 | 0.0 | 0.0 | 0.00 | 0.00 | 0.00 | 79 | 1024.1 |
| 20260906005405 | 59 | 0 | 0.0 | 0.0 | 0.00 | 0.00 | 0.00 | 79 | 1024.1 |
| 20260906004503 | 59 | 0 | 0.0 | 0.0 | 0.00 | 0.00 | 0.00 | 79 | 1024.2 |
| 20260906003606 | 59 | 0 | 0.0 | 0.0 | 0.00 | 0.00 | 0.00 | 79 | 1024.2 |
| 20260906002703 | 59 | 0 | 0.0 | 0.0 | 0.00 | 0.00 | 0.00 | 79 | 1024.3 |
| 20260906001805 | 59 | 0 | 0.0 | 0.0 | 0.00 | 0.00 | 0.00 | 78 | 1024.4 |
| 20260906000906 | 59 | 0 | 0.0 | 0.0 | 0.00 | 0.00 | 0.00 | 78 | 1024.5 |
| 20260906000003 | 60 | 165 | 0.0 | 1.7 | 0.00 | 0.00 | 0.00 | 78 | 1024.6 |
| 20260905235405 | 60 | 165 | 0.0 | 1.7 | 0.00 | 0.00 | 0.00 | 78 | 1024.5 |
| 20260905234503 | 59 | 165 | 0.0 | 0.9 | 0.00 | 0.00 | 0.00 | 78 | 1024.4 |
| 20260905232706 | 60 | 0 | 0.0 | 0.0 | 0.00 | 0.00 | 0.00 | 78 | 1024.5 |
| 20260905231803 | 60 | 165 | 0.0 | 0.9 | 0.00 | 0.00 | 0.00 | 77 | 1024.4 |
| 20260905230905 | 60 | 165 | 0.0 | 0.9 | 0.00 | 0.00 | 0.00 | 77 | 1024.4 |
| 20260905230005 | 60 | 165 | 0.0 | 0.9 | 0.00 | 0.00 | 0.00 | 77 | 1024.5 |
| 20260905225613 | 60 | 165 | 0.0 | 0.9 | 0.00 | 0.00 | 0.00 | 77 | 1024.5 |
| 20260905224504 | 60 | 0 | 0.0 | 0.0 | 0.00 | 0.00 | 0.00 | 76 | 1024.5 |
| 20260905223605 | 60 | 0 | 0.0 | 0.0 | 0.00 | 0.00 | 0.00 | 76 | 1024.6 |